{"data":{"norad_id":61011,"intl_designator":"2024-159A","name":"GEESAT-3 01","alt_names":[],"object_type":"PAYLOAD","status":"ACTIVE","operator":null,"country":"PRC","launch_date":"2024-09-05","launch_site_code":"TAISC","launch_vehicle":null,"mission":null,"orbit_class":"UNKNOWN","rcs_meters":null,"size_class":null,"mass_kg":null,"dimensions":null,"purposes":[],"wikipedia_slug":null,"has_3d_model":false,"image_url":null,"decayed_at":null,"tle_current":{"epoch":"2026-05-25T04:20:51.546624Z","epoch_age_seconds":69987,"freshness":"FRESH","line1":"1 61011U 24159A   26145.18115216  .00001593  00000+0  21567-3 0  9994","line2":"2 61011  49.9991 189.7854 0002355 165.4445 194.6562 14.84107349 93262","mean_motion":14.84107349,"eccentricity":0.0002355,"inclination_deg":49.9991,"raan_deg":189.7854,"arg_perigee_deg":165.4445,"mean_anomaly_deg":194.6562,"bstar":0.00021567,"rev_number":9326,"period_min":97.028021656943,"perigee_km":614.74192923898,"apogee_km":618.03635105098,"semimajor_km":6994.526140145,"source":"CELESTRAK","updated_at":"2026-05-25T13:38:02.275657Z"}}}